Weather in Bordighera

Italy     43°47′05″N   7°39′33″E
temp.,
°C
wind,
m/s
gust,
m/s
humid.,
%
clouds,
%
prec.,
mm/h
press.,
hPa
HPBL,
m
20 may, fri
fri2023:00+22ne33665 0.0 102514
02:00+21ene44735 0.0 102552
05:00+21ne44735 0.0 102550
08:00+21ene45745 0.0 102691
11:00+20e56845 0.0 1027166
14:00+20e57885 0.0 1026236
17:00+20ese33825 0.0 1025165
20:00+20e11805 0.0 102461
21 may, sat
sat2123:00+20ene338097 0.0 102485
02:00+20ene4580100 0.0 1023162
05:00+20ne337881 0.0 1021131
08:00+20w11785 0.0 102181
11:00+19wsw44815 0.0 1021255
14:00+20sw23795 0.0 1020183
17:00+20s33785 0.0 1018233
20:00+21ese11779 0.0 1017247
22 may, sun
sun2223:00+20ene55859 0.0 1017191
02:00+20ene578493 0.0 1016267
05:00+20ne588329 0.0 1015394
08:00+20ne47826 0.0 1015401
11:00+20e78865 0.0 1015390
14:00+20e55853 0.0 1014239
17:00+20e338399 0.0 1013134
20:00+20ene228448 0.0 101199
23 may, mon
mon2323:00+20ene458385 0.0 1012150
02:00+20ne348199 0.0 1011131
05:00+20ne337932 0.0 1011128
08:00+20ene33785 0.0 1010155
11:00+20ese3378100 0.0 1010193
14:00+20ese23859 0.0 1010147
17:00+21sse117849 0.0 1008148
20:00+21nw007642 0.0 100750
24 may, tue
tue2423:00+21ne22755 0.0 100723
02:00+20ne3372100 0.0 100773
05:00+20ne4468100 0.0 1007105
08:00+20ene457193 0.0 1008161
11:00+20e8884100 0.0 1008301
14:00+20e91086100 0.0 1009417
17:00+20e668894 0.0 1008266
20:00+20ene2289100 0.0 100978